Other Public Products
Issued by NWS Grand Forks, ND

Home | Current Version | Previous Version | Graphics & Text | Print | Product List | Glossary On
Versions: 1 2 3 4 5 6 7 8 9 10 11 12 13 14 15 16 17 18 19 20 21 22 23 24 25 26 27 28 29 30 31 32 33 34 35 36 37 38 39 40 41 42 43 44 45 46 47 48 49 50
000
FPUS83 KFGF 170631
OPUFGF
PRAIRIE TO PINES WEATHER ROUNDUP
NATIONAL WEATHER SERVICE EASTERN NORTH DAKOTA/GRAND FORKS ND
100 AM CDT WED SEP 17 2014

 **SATELLITE DATA USED TO AUGMENT SKY COVER AT AUTOMATED STATIONS**
 *****  WEATHER ACROSS EASTERN NORTH DAKOTA  *****

CITY           SKY/WX    TMP DP  RH WIND       PRES   REMARKS
GRAND FORKS    CLEAR     48  43  82 S7        29.90S
6HR MIN TEMP:  47; 6HR MAX TEMP:  66;

GRAND FORKS AF CLEAR     48  44  85 S5        29.91S
GRAND CITY NWS   N/A     50 N/A N/A SW3         N/A
BUXTON           N/A     52  48  88 SE5         N/A
DEVILS LAKE    CLEAR     50  39  66 W5        29.90S
6HR MIN TEMP:  48; 6HR MAX TEMP:  66;

FARGO          CLEAR     57  46  66 SE8       29.91S
6HR MIN TEMP:  53; 6HR MAX TEMP:  67;

WAHPETON ARPT  PTCLDY    52  45  76 SE7       29.91F
$$

 *****  WEATHER ACROSS CENTRAL AND WESTERN NORTH DAKOTA  *****

CITY           SKY/WX    TMP DP  RH WIND       PRES   REMARKS
JAMESTOWN      CLEAR     46  42  86 CALM      29.91S
6HR MIN TEMP:  45; 6HR MAX TEMP:  68;

BISMARCK       CLEAR     46  42  86 VRB3      29.94R
6HR MIN TEMP:  46; 6HR MAX TEMP:  72;

MINOT          CLEAR     50  44  80 SW7       29.91S
6HR MIN TEMP:  49; 6HR MAX TEMP:  69;

MINOT AFB      CLEAR     43  41  93 W7        29.91R
6HR MIN TEMP:  43; 6HR MAX TEMP:  70;

GARRISON         N/A     46  42  86 NE5       29.93R
6HR MIN TEMP:  43; 6HR MAX TEMP:  69;

WILLISTON      CLEAR     41  36  82 CALM      29.93S HAZE
6HR MIN TEMP:  41; 6HR MAX TEMP:  71;

DICKINSON      PTCLDY    51  42  71 S3        29.94R
6HR MIN TEMP:  47; 6HR MAX TEMP:  70;

HETTINGER      MOCLDY    48  43  82 W3        29.95S
6HR MIN TEMP:  47; 6HR MAX TEMP:  71;

$$

 *****  OTHER OBSERVATIONS NORTHEAST NORTH DAKOTA  *****

CITY           SKY/WX    TMP DP  RH WIND       PRES   REMARKS
WALHALLA         N/A     57  41  54 W7        29.89S
LANGDON        FAIR      41  36  81 SW7       29.91S
CAVALIER       FAIR      54  41  62 SW7       29.89S
GRAFTON        FAIR      48  41  76 SW7       29.90R
CANDO          FAIR      46  41  81 SW3       29.91F
FORT TOTTEN    NOT AVBL
ROLLA          FAIR      46  45  93 SW8       29.92S
RUGBY          FAIR      46  45  93 SE6       29.91S
 ***** THE ABOVE OBSERVATIONS ARE NON NWS ARE NOT QUALITY
        CONTROLLED AND MAY MIS-REPORT RAIN FOR SNOW...
$$

 *****  OTHER OBSERVATIONS SOUTHEAST NORTH DAKOTA *****

CITY           SKY/WX    TMP DP  RH WIND       PRES   REMARKS
COOPERSTOWN    NOT AVBL
VALLEY CITY    FAIR      48  48 100 N3        29.91S
OAKES            N/A     46  46 100 CALM      29.91S
GWINNER        CLEAR     50  50 100 SW8       29.91F
SHEYENNE NWR     N/A     49  46  90 CALM      29.95S
BUFFALO          N/A     46  43  89 E6          N/A
WYNDMERE         N/A     46  45  93 S1          N/A
 ***** THE ABOVE OBSERVATIONS ARE NON NWS ARE NOT QUALITY
       CONTROLLED AND MAY MIS-REPORT RAIN FOR SNOW...
$$

  *****  WEATHER ACROSS NORTHERN MINNESOTA  *****

CITY           SKY/WX    TMP DP  RH WIND       PRES   REMARKS
FLAG ISLAND    MOCLDY    57  46  67 SW16      29.83S
WARROAD        PTCLDY    54  45  71 SW14      29.86F
ROSEAU         PTCLDY    54  45  71 SW12      29.87F
HALLOCK        CLEAR     46  43  87 S3        29.89R
THF RVR FALLS  CLEAR     48  43  81 S6        29.91S
6HR MIN TEMP:  48; 6HR MAX TEMP:  66;

HALSTAD          N/A     45  43  91 SE7         N/A
FOSSTON        CLEAR     45  41  87 S6        29.93F
BAUDETTE       MOCLDY    53  44  71 SW10      29.87F
6HR MIN TEMP:  49; 6HR MAX TEMP:  56;

WASKISH        PTCLDY    54  43  66 CALM      29.90
CROOKSTON      CLEAR     48  43  81 S5        29.91F
$$
  *****  WEATHER ACROSS CENTRAL AND WEST MINNESOTA  *****

CITY           SKY/WX    TMP DP  RH WIND       PRES   REMARKS
BEMIDJI        CLEAR     48  41  77 S3        29.93F
PARK RAPIDS    CLEAR     48  42  80 SE3       29.95F
6HR MIN TEMP:  47; 6HR MAX TEMP:  62;

WADENA         CLEAR     48  45  87 CALM      29.94F
DETROIT LAKES  CLEAR     54  46  76 SE6       29.94F
MOORHEAD       CLEAR     55  50  82 SE5       29.92S
FERGUS FALLS   PTCLDY    55  45  67 SE6       29.93F
ELBOW LAKE     MOCLDY    53  47  82 SE7       29.93S
6HR MIN TEMP:  52; 6HR MAX TEMP:  63;

MORRIS MN      CLEAR     54  48  82 SE9       29.93S
STAPLES        CLEAR     48  45  87 CALM      29.95F
WHEATON        CLEAR     52  48  87 SE6       29.93F
$$
  *****  WEATHER ELSEWHERE ACROSS MINNESOTA  *****

CITY           SKY/WX    TMP DP  RH WIND       PRES   REMARKS
DULUTH         PTCLDY    50  42  74 W8        29.96F
6HR MIN TEMP:  50; 6HR MAX TEMP:  63;

INTRNTL FALLS  CLOUDY    52  47  83 SW7       29.87F
6HR MIN TEMP:  50; 6HR MAX TEMP:  56; 6HR PCP: TRACE;

ELY            CLOUDY    52  45  76 SW6       29.91F
CLOQUET        PTCLDY    50  43  76 SW6       29.96F
BRAINERD       MOCLDY    45  43  93 CALM      29.97F
6HR MIN TEMP:  43; 6HR MAX TEMP:  60;

HIBBING        PTCLDY    45  41  86 CALM      29.94F
6HR MIN TEMP:  45; 6HR MAX TEMP:  63;

ALEXANDRIA     MOCLDY    52  47  83 SE7       29.96F
6HR MIN TEMP:  51; 6HR MAX TEMP:  62;

SAINT CLOUD    CLOUDY    55  47  74 E3        29.97F
6HR MIN TEMP:  54; 6HR MAX TEMP:  63;

MINNEAPOLIS    CLOUDY    56  47  71 E5        29.99F
6HR MIN TEMP:  56; 6HR MAX TEMP:  65;

$$

  *****  WEATHER ACROSS SOUTH DAKOTA  *****

CITY           SKY/WX    TMP DP  RH WIND       PRES   REMARKS
SIOUX FALLS    CLOUDY    60  49  66 S6        29.96S
6HR MIN TEMP:  60; 6HR MAX TEMP:  65;

BROOKINGS      NOT AVBL
WATERTOWN      PTCLDY    55  50  83 S8        29.93F
6HR MIN TEMP:  55; 6HR MAX TEMP:  64;

HURON          MOCLDY    56  51  84 S9        29.90F
6HR MIN TEMP:  56; 6HR MAX TEMP:  71;

SISSETON         N/A     54  52  93 SE6       29.91S
ABERDEEN       CLEAR     48  47  96 CALM      29.91S
6HR MIN TEMP:  48; 6HR MAX TEMP:  65;

MITCHELL       MOCLDY    55  52  89 SE8       29.91F
PIERRE         CLEAR     57  51  80 SW5       29.88F
6HR MIN TEMP:  52; 6HR MAX TEMP:  73;

MOBRIDGE       MOCLDY    56  51  84 E8        29.88S
RAPID CITY     CLEAR     58  46  64 CALM      29.96S
6HR MIN TEMP:  52; 6HR MAX TEMP:  76;

$$

  *****  SOME WEATHER IN NEARBY STATES *****

CITY           SKY/WX    TMP DP  RH WIND       PRES   REMARKS
GLASGOW MT     PTCLDY    56  41  57 E12       29.90S
6HR MIN TEMP:  56; 6HR MAX TEMP:  75;

GREAT FALLS MT CLOUDY    62  43  49 SW6       29.92R
6HR MIN TEMP:  59; 6HR MAX TEMP:  73;

CHEYENNE WY    MOCLDY    64  36  35 SW9       30.16S
6HR MIN TEMP:  58; 6HR MAX TEMP:  80; 6HR PCP: TRACE;

SCOTTSBLUFF NE PTCLDY    59  47  64 NE6       30.01F
6HR MIN TEMP:  57; 6HR MAX TEMP:  84;

OMAHA NE       CLOUDY    63  51  65 S9        29.98F
6HR MIN TEMP:  63; 6HR MAX TEMP:  66;

DES MOINES IA  MOCLDY    55  49  80 SE6       30.03F
6HR MIN TEMP:  55; 6HR MAX TEMP:  64;

DAVENPORT IA   CLEAR     47  43  86 SE6       30.08F
6HR MIN TEMP:  46; 6HR MAX TEMP:  60;

CHICAGO IL     CLEAR     55  47  74 SW3       30.08F
6HR MIN TEMP:  55; 6HR MAX TEMP:  67;

EAU CLAIRE WI  CLEAR     43  41  93 CALM      30.01F
6HR MIN TEMP:  42; 6HR MAX TEMP:  61;

LA CROSSE WI   CLEAR     49  46  90 SE6       30.04F
6HR MIN TEMP:  49; 6HR MAX TEMP:  64;

$$

  *****  SOME NATIONAL WEATHER *****

CITY           SKY/WX    TMP DP  RH WIND       PRES   REMARKS


USA.gov is the U.S. government's official web portal to all federal, state and local government web resources and services.